Location: Castifao
(42.5040°N, 9.1124°E)
Time: 14:21:30
(UTC+00:00)

Cosmos 2227 Rocket - Pass Details

Date: 23 January 2020
Orbit: 841 x 843 km, 71.0° (Epoch: 23 February)

Event Time Altitude Azimuth Distance (km) Brightness Sun altitude
Rises 18:04:40 0° 218° (SW) 3,384 6.1 -18.3°
Reaches altitude 10° 18:07:11 10° 224° (SW) 2,453 5.4 -18.7°
Maximum altitude 18:12:38 50° 299° (WNW) 1,064 3.0 -19.7°
Drops below altitude 10° 18:18:08 10° 15° (NNE) 2,466 4.4 -20.7°
Enters shadow 18:18:32 - 16° (NNE) 2,611 4.5 -20.8°
